STARLINK-1733, 46564

Orbit data source: Space-Track

STARLINK-1733, 46564 is a payload satellite owned by SpaceX/Seattle (US) in LEO that was launched on Tue, 06 Oct 2020 UTC via an FALCON 9 launch vehicle from the Air Force Eastern Test Range (AFETR). Payload-class satellites include a variety of spacecraft equipped with specific instruments for various scientific and technological missions. These include communications satellites like Starlink; space stations such as the ISS; scientific satellites like the Hubble; Earth observation satellites from companies like Planet Labs, Umbra, and HawkEye 360; GPS; miniature CubeSats for education and research; and military/defense satellites.

Loading next visibility...
Identifier
46564, 2020-070AJ
Orbit
LEO
Country
Flag of USUS
Related business
Manufacturer
SpaceX/Seattle
Mission
Operational Commercial Communications
Bus & Motor
STARLINK, Unknown motor
Mass
260 kg wet, ~248 kg dry
Launch date (UTC)
2020-10-06 (5 years ago)
Launch vehicle
FALCON 9
Launch site
Air Force Eastern Test Range (AFETR)
Object type
Payload
Rocket body
Debris
Shape & HBR
Box + 1 Pan, 4.4 m
Radar Cross Section
13.562 m², Large (>1 m²)

Expand to show TLE details & history
Last TLE update: 1 day ago

TLE from 1 day ago
0 STARLINK-1733
1 46564U 20070AJ  25258.31231352  .00002007  00000-0  15357-3 0  9999
2 46564  53.0522 223.9924 0001396  83.8015 276.3133 15.06400949273352
Epoch: 2025-09-15T07:29Z
TLE epoch observation values (Epoch: 2025-09-15T07:29:43.888Z)
Latitude
-0°
Longitude
117.04076°
Altitude
547.981 km
Speed
7.589 km/s
True Right ascension
14h 55m 58s
True Declination
0° 00' 00"
Sunlit
Object was in daylight at epoch
Visualization orbit readout
Latitude
Unknown
Longitude
Unknown
Altitude
Unknown
Speed
Unknown
Apparent Right ascension
Unknown
Apparent Declination
Unknown
Sunlit
N/A
Visualization observer readout
Local Sidereal Time
01:06:04
Azimuth
Unknown
Elevation
Unknown
Doppler factor
Unknown
Orbital elements
Apogee altitude
548.447 km
Perigee altitude
546.513 km
Semi-major axis
6,925.617 km
Eccentricity
0.00014
Inclination
53.0522°
RAAN
223.9924°
Arg. of periapsis
83.8015°
True anomaly
276.2974°
Mean anomaly
276.3133°
Eccentric anomaly
276.30535°
Mean motion
3.76578 °/min
Orbital period
95.6 mins
BSTAR
0.00015357
Loading maneuver chart data...
Computing Atmospheric mass density...
Loading historical data...
Loading historical data...
Loading historical data...
Loading historical data...
Loading historical data...
Loading historical data...
Loading historical data...

Documentation

Showing up to 5 results
|